Regional Weather Roundup
Issued by NWS

Home | Current Version | Previous Version | Text Only | Print | Product List | Glossary Off
Versions: 1 2 3 4 5 6 7 8 9 10 11 12 13 14 15 16 17 18 19 20 21 22 23 24 25 26 27 28 29 30 31 32 33 34 35 36 37 38 39 40 41 42 43 44 45 46 47 48 49 50

000
ASUS43 KMPX 210201
RWRMN
WEATHER ROUNDUP FOR MINNESOTA
NATIONAL WEATHER SERVICE TWIN CITIES/CHANHASSEN MN
900 PM CDT SUN APR 20 2014


NOTE: "FAIR" INDICATES FEW OR NO CLOUDS BELOW 12,000 FEET WITH NO
SIGNIFICANT WEATHER AND/OR OBSTRUCTIONS TO VISIBILITY. N/A MEANS
CURRENT SKY AND/OR WEATHER CONDITIONS ARE NOT AVAILABLE.

MNZ060>063-068>070-210300-
   Twin Cities Metro

CITY           SKY/WX    TMP DP  RH WIND       PRES   REMARKS
TWIN CITIES    PTCLDY    65  53  65 SE7       29.95R
ST PAUL        CLEAR     62  51  67 SE5       29.95R
CRYSTAL        CLEAR     65  33  30 NE5       29.94R
BLAINE         PTCLDY    63  34  34 CALM      29.95S
EDEN PRAIRIE   PTCLDY    63  51  65 SE7       29.93R
LAKEVILLE      PTCLDY    61  55  82 SE3       29.95R
SOUTH ST PAUL  CLEAR     67  53  59 SE3       29.95R
LAKE ELMO      MOCLDY    61  52  72 SE5       29.97R
$$
MNZ001>005-007-008-013>017-022>024-027-028-210300-
   Northwest Minnesota

CITY           SKY/WX    TMP DP  RH WIND       PRES   REMARKS
BEMIDJI        MOCLDY    56  31  39 SE6       29.91S
HALLOCK        CLOUDY    55  46  71 SE14      29.78F
ROSEAU         CLOUDY    48  39  71 E12       29.85F
WARROAD        CLOUDY    43  36  75 E9        29.88F
THIEF RVR FALL CLOUDY    57  37  47 SE10      29.87F
CROOKSTON      CLOUDY    59  41  51 S10       29.85F
FOSSTON        CLOUDY    57  30  35 SE5       29.90S
DETROIT LAKES  MOCLDY    61  32  33 SE5       29.93S
PARK RAPIDS    PTCLDY    58  30  34 CALM      29.92S
$$
MNZ006-009>011-018-025>026-210300-
   North Central Minnesota

CITY           SKY/WX    TMP DP  RH WIND       PRES   REMARKS
BAUDETTE       CLOUDY    48  36  63 E8        29.90F
FLAG ISLAND    MOCLDY    46  32  57 CALM      29.88F
INTL FALLS     MOCLDY    45  33  63 E6        29.93F
WASKISH        MOCLDY    46  39  76 CALM      29.91F
BIG FORK       PTCLDY    48  30  49 SE3       29.94S
LONGVILLE      CLEAR     46  30  53 CALM      29.94S
GRAND RAPIDS   CLEAR     48  30  49 CALM      29.95S
CRANE LAKE     MOCLDY    36  25  64 CALM      29.98S
ORR            MOCLDY    48  28  46 E3        29.93S
COOK           PTCLDY    45  32  61 CALM      29.96S
$$
MNZ012-019>021-037-210300-
   Northeast Minnesota

CITY           SKY/WX    TMP DP  RH WIND       PRES   REMARKS
DULUTH         PTCLDY    54  30  40 SE5       29.98S
ELY            PTCLDY    43  32  65 CALM      29.98S
HIBBING        CLEAR     43  31  62 CALM      29.95F
EVELETH        CLEAR     43  32  65 CALM      29.98S
DULUTH HARBOR  CLEAR     37  34  87 CALM      29.99S
TWO HARBORS    CLEAR     45  32  61 CALM      29.97S
SILVER BAY     CLEAR     39  34  81 CALM      29.98R
GRAND MARAIS     N/A     37  32  82 CALM      30.00R
G MARAIS ARPRT CLEAR     45  27  49 CALM      30.01R
$$
MNZ029>031-032-039>041-046>048-054>057-064-210300-
   West Central Minnesota

CITY           SKY/WX    TMP DP  RH WIND       PRES   REMARKS
FERGUS FALLS   MOCLDY    63  28  27 SE7       29.88R
WHEATON        PTCLDY    61  37  41 SE7       29.92S
MORRIS         PTCLDY    59  39  47 SE8       29.91S
ALEXANDRIA     CLEAR     62  36  37 SE5       29.94S
ELBOW LAKE     FAIR      62  36  36 SE6       29.92S
WADENA         CLEAR     57  37  47 CALM      29.93S
GLENWOOD       PTCLDY    59  39  47 E3        29.95R
APPLETON       MOCLDY    63  39  42 E7        29.91R
BENSON         MOCLDY    63  37  39 E5        29.92S
ORTONVILLE     PTCLDY    63  37  39 E8        29.90S
MADISON        MOCLDY    63  45  51 E6        29.90S
WILLMAR        DRZL/FOG  64  36  34 E8        29.94S VSB 3/4
$$
MNZ033>034-036-042>043-049>051-058-059-210300-
   Central Minnesota

CITY           SKY/WX    TMP DP  RH WIND       PRES   REMARKS
ST CLOUD       CLEAR     62  36  37 CALM      29.94S
SAUK CENTRE    FAIR      60  36  41 CALM      29.94S
PAYNESVILLE    CLEAR     60  36  40 CALM      29.94S
AITKIN         CLEAR     52  36  54 S3        29.94S
PINE RIVER     CLEAR     55  36  47 SE6       29.97S
BRAINERD       CLEAR     62  31  31 SE6       29.96R
STAPLES        CLEAR     59  30  33 CALM      29.94S
LONG PRAIRIE   FAIR      54  39  58 CALM      29.94F
LITTLE FALLS   CLEAR     59  32  36 E3        29.94F
LITCHFIELD     PTCLDY    64  39  39 E3        29.95R
BUFFALO        MOCLDY    58  39  48 NE5       29.96R
MAPLE LAKE     MOCLDY    60  41  49 NE3       29.95R
$$
MNZ037-044-045-052-053-210300-
   East Central Minnesota

CITY           SKY/WX    TMP DP  RH WIND       PRES   REMARKS
PRINCETON      PTCLDY    57  37  47 NE3       29.95S
MORA           CLEAR     50  36  57 CALM      29.97F
CAMBRIDGE      CLEAR     57  39  51 CALM      29.94S
RUSH CITY      PTCLDY    55  37  52 CALM      29.96S
HINCKLEY       FAIR      52  39  62 CALM      29.96S
CLOQUET        CLEAR     55  30  38 E3        29.98R
MCGREGOR       CLEAR     52  34  50 CALM      29.95S
$$
MNZ071>073-080-081-089-090-097-098-210300-
   Southwest Minnesota

CITY           SKY/WX    TMP DP  RH WIND       PRES   REMARKS
MONTEVIDEO     CLOUDY    63  43  48 SE10      29.91S
GRANITE FALLS  MOCLDY    63  44  49 NE12      29.92R
CANBY          PTCLDY    62  44  51 E8        29.90F
MARSHALL       PTCLDY    63  45  51 NE9       29.90R
REDWOOD FALLS  PTCLDY    68  48  48 E6        29.91R
OLIVIA         PTCLDY    59  46  63 E6        29.92R
PIPESTONE      PTCLDY    66  46  48 E3        29.89R
WINDOM         MOCLDY    66  54  63 NE10      29.90R
WORTHINGTON    CLOUDY    70  50  49 S10       29.92R
JACKSON        CLOUDY    68  54  60 E10       29.90S
TRACY          PTCLDY    64  50  60 CALM      29.91R
SLAYTON        PTCLDY    65  48  53 NE9       29.91R
$$
MNZ065>067-074>077-082>085-091>093-210300-
   South Central Minnesota

CITY           SKY/WX    TMP DP  RH WIND       PRES   REMARKS
MANKATO        PTCLDY    64  54  68 E9        29.93R
NEW ULM        PTCLDY    66  54  63 E8        29.92R
ST JAMES       PTCLDY    66  55  68 E7        29.92R
FAIRMONT       MOCLDY    66  54  63 E10       29.91F
GLENCOE        PTCLDY    64  48  57 E3        29.94R
FARIBAULT      PTCLDY    66  52  59 E3        29.95S
OWATONNA       PTCLDY    63  55  77 E6        29.94S
WASECA         PTCLDY    61  55  82 E8        29.95S
ALBERT LEA     MOCLDY    61  55  82 E6        29.93F
$$
MNZ078>079-086>088-094>096-210300-
   Southeast Minnesota

CITY           SKY/WX    TMP DP  RH WIND       PRES   REMARKS
ROCHESTER      PTCLDY    60  55  83 E6        29.97R
RED WING       CLEAR     61  54  77 E5        29.96R
STANTON        PTCLDY    64  54  69 E3        29.94R
DODGE CENTER   PTCLDY    63  57  82 E5        29.96R
WINONA           N/A    N/A N/A N/A MISG        N/A
AUSTIN         MOCLDY    61  55  82 E6        29.94S
PRESTON        MOCLDY    60  55  83 E5        29.98R
$$
ABBREVIATIONS USED IN REMARKS
   TC - TEMPERATURES IN CELSIUS
  WCI - WIND CHILL INDEX
   HX - HEAT INDEX
  VSB - VISIBILITY
$$



USA.gov is the U.S. government's official web portal to all federal, state and local government web resources and services.